User: anonymous   Login
Location: Vancouver
(49.2500°N, 123.1330°W)
Time: 23:06:52
(UTC-08:00)
Language:

SO-67 - Orbit

View from above orbital plane
View from above orbital plane
View from above satellite
View from above satellite

Ground track
Ground track

The orbit data is extracted from the following two-line orbital elements,

1 35870U 09049F   18051.83822138 +.00006003 +00000-0 +85766-4 0  9990
2 35870 097.0900 071.6343 0001333 136.6312 349.2176 15.56624258471868
Epoch (UTC): 20 February 2018 20:07:02
Eccentricity: 0.0001333
inclination: 97.0900°
perigee height: 396 km
apogee height: 398 km
right ascension of ascending node: 71.6343°
argument of perigee: 136.6312°
revolutions per day: 15.56624258
mean anomaly at epoch: 349.2176°
orbit number at epoch: 47186

The dashed part of the orbit path shows where the satellite is in the earth's shadow,  

DLR